User: anonymous   Login
Location: ČR
(50.0000°N, 15.0000°E)
Time: 14:14:22
(UTC+00:00)
Language:

Vanguard 1 - Orbit

View from above orbital plane
View from above orbital plane
View from above satellite
View from above satellite

Ground track
Ground track

The orbit data is extracted from the following two-line orbital elements,

1 00005U 58002B   21297.69235279  .00000066  00000-0  11224-3 0  9999
2 00005  34.2401 145.6899 1842290  56.4929 319.8357 10.84823837258931
Epoch (UTC): 24 October 2021 16:36:59
Eccentricity: 0.1842290
inclination: 34.2401°
perigee height: 653 km
apogee height: 3829 km
right ascension of ascending node: 145.6899°
argument of perigee: 56.4929°
revolutions per day: 10.84823837
mean anomaly at epoch: 319.8357°
orbit number at epoch: 25893

The dashed part of the orbit path shows where the satellite is in the earth's shadow,  

DLR